Weather History for PHKO - November, 2012

Change the Weather History Date:

Sunday, November 25, 2012

  Actual Average (PHTO) Record (PHTO)
Temperature  
Mean Temperature 78 °F 73 °F  
Max Temperature 86 °F 80 °F 87 °F (1977)
Min Temperature 71 °F 67 °F 60 °F (1993)
Degree Days  
Heating Degree Days 0 0  
Month to date heating degree days 0  
Since 1 July heating degree days 0  
Cooling Degree Days 14 8  
Month to date cooling degree days 231  
Year to date cooling degree days 2966  
Growing Degree Days 28 (Base 50)    
Moisture  
Dew Point 64 °F    
Average Humidity 64    
Maximum Humidity 76    
Minimum Humidity 48    
Precipitation  
Precipitation 0.00 in 0.50 in 5.41 in (1967)
Month to date precipitation 13.10  
Year to date precipitation 112.75  
Snow  
Snow 0.00 in - - ()
Month to date snowfall  
Since 1 July snowfall  
Since 1 September snowfall  
Snow Depth -    
Sea Level Pressure  
Sea Level Pressure 29.93 in    
Wind  
Wind Speed 7 mph (ENE)    
Max Wind Speed 20 mph    
Max Gust Speed 25 mph    
Visibility 10 miles    
Events      
T = Trace of Precipitation, MM = Missing Value Source: NWS Daily Summary

Daily Weather History Graph

Daily Weather History Graph

Search for Another Location

Airport or City:

Trip Planner

Search our weather history database for the weather conditions in past years. The results will help you decide how hot, cold, wet, or windy it might be!

Date:

Astronomy

Nov. 25, 2012 Rise Set
Actual Time 6:39 AM HST 5:43 PM HST
Civil Twilight 6:15 AM HST 6:07 PM HST
Nautical Twilight 5:48 AM HST 6:34 PM HST
Astronomical Twilight 5:21 AM HST 7:00 PM HST
Moon 3:56 PM HST (11/25) 4:17 AM HST (11/25)
Length of Visible Light 11h 51m
Length of Day
11h 04m
Waxing Gibbous, 94% of the Moon is Illuminated
Nov 25
Waxing Gibbous
Nov 28
Full
Dec 6
Last Quarter
Dec 12
New
Dec 19
First Quarter

Hourly Weather History & Observations

Time (HST) Temp. Heat Index Dew Point Humidity Pressure Visibility Wind Dir Wind Speed Gust Speed Precip Events Conditions
12:53 AM 73.9 °F - 63.0 °F 68% 29.93 in 10.0 mi SE 3.5 mph - N/A   Clear
1:53 AM 73.0 °F - 64.9 °F 76% 29.94 in 10.0 mi ESE 8.1 mph - N/A   Clear
2:53 AM 73.9 °F - 64.0 °F 71% 29.92 in 10.0 mi East 8.1 mph - N/A   Clear
3:53 AM 73.0 °F - 64.9 °F 76% 29.91 in 10.0 mi ESE 4.6 mph - N/A   Partly Cloudy
4:53 AM 72.0 °F - 63.0 °F 73% 29.93 in 10.0 mi East 5.8 mph - N/A   Clear
5:53 AM 72.0 °F - 61.0 °F 68% 29.94 in 10.0 mi East 5.8 mph - N/A   Clear
6:53 AM 71.1 °F - 60.1 °F 68% 29.96 in 10.0 mi ENE 4.6 mph - N/A   Clear
7:53 AM 77.0 °F - 62.1 °F 60% 29.97 in 10.0 mi Calm Calm - N/A   Clear
8:53 AM 78.1 °F - 66.9 °F 68% 29.98 in 10.0 mi West 3.5 mph - N/A   Clear
9:53 AM 80.1 °F 81.7 °F 64.0 °F 58% 29.98 in 10.0 mi NNW 12.7 mph - N/A   Clear
10:53 AM 84.0 °F 84.9 °F 63.0 °F 49% 29.95 in 10.0 mi NNW 15.0 mph - N/A   Clear
11:53 AM 84.0 °F 86.3 °F 66.0 °F 55% 29.92 in 10.0 mi NNW 18.4 mph - N/A   Clear
12:53 PM 86.0 °F 87.3 °F 64.0 °F 48% 29.89 in 10.0 mi North 13.8 mph - N/A   Clear
1:53 PM 82.9 °F 85.0 °F 66.0 °F 56% 29.87 in 10.0 mi NW 18.4 mph 25.3 mph N/A   Clear
2:53 PM 82.9 °F 85.0 °F 66.0 °F 56% 29.86 in 10.0 mi NNW 19.6 mph 24.2 mph N/A   Partly Cloudy
3:53 PM 84.0 °F 85.4 °F 64.0 °F 51% 29.86 in 10.0 mi North 17.3 mph - N/A   Clear
4:53 PM 80.1 °F 82.1 °F 66.0 °F 62% 29.88 in 10.0 mi South 12.7 mph - N/A   Scattered Clouds
5:53 PM 79.0 °F - 66.0 °F 64% 29.90 in 10.0 mi SE 8.1 mph - N/A   Clear
6:53 PM 78.1 °F - 66.9 °F 68% 29.94 in 10.0 mi South 3.5 mph - N/A   Scattered Clouds
7:53 PM 77.0 °F - 66.9 °F 71% 29.95 in 10.0 mi Calm Calm - N/A   Clear
8:53 PM 75.9 °F - 66.9 °F 74% 29.96 in 10.0 mi ESE 6.9 mph - N/A   Clear
9:53 PM 75.9 °F - 64.9 °F 69% 29.96 in 10.0 mi Calm Calm - N/A   Clear
10:53 PM 75.9 °F - 64.0 °F 67% 29.97 in 10.0 mi Variable 5.8 mph - N/A   Clear
11:53 PM 73.9 °F - 63.0 °F 68% 29.96 in 10.0 mi NE 5.8 mph - N/A   Clear